SCP
0 -0 -0 0 0 0 0 0 0 0 0 0 0 0 0 0 0 0 0 0 0 0 0 0 0 0 0 0 0 0 0 0 0 0 0 0 0 0 0 0 0 0 -0
-0 -0 0 0 0 0 0 0 0 0 0 0 0 0 0 0 0 0 0 0 0 0 0 0 0 0 0 0 0 0 0 0 0 0 0 0 0 0 0 0 0 0 -0
0 0 0 0 0 0 0 0 0 0 0 0 0 0 0 0 0 0 0 0 0 0 0 0 0 0 0 0 0 0 0 0 0 0 0 0 0 0 0 0 0 0 0
0 0 0 0 0 0 0 0 0 0 0 0 0 0 0 0 0 0 0 0 0 0 0 0 0 0 0 0 0 0 0 0 0 0 0 0 0 0 0 0 0 0 0
0 0 0 0 0 0 0 0 0 0 0 0 0 0 0 0 0 0 0 0 0 0 0 0 0 0 0 0 0 0 0 0 0 0 0 0 0 0 0 0 0 0 0
0 0 0 0 0 0 0 0 0 0 0 0 0 0 0 0 0 0 0 0 0 0 0 0 0 0 0 0 0 0 0 0 0 0 0 0 0 0 0 0 0 0 0
0 0 0 0 0 0 0 0 0 0 0 0 0 0 0 0 0 0 0 0 0 0 0 0 0 0 0 0 0 0 0 0 0 0 0 0 0 0 0 0 0 0 0
0 0 0 0 0 0 0 0 0 0 0 0 0 0 0 0 0 0 0 0 0 0 0 0 0 0 0 0 0 0 0 0 0 0 0 0 0 0 0 0 0 0 0
0 0 0 0 0 0 0 0 0 0 0 0 0 0 0 0 0 0 0 0 0 0 0 0 0 0 0 0 0 0 0 0 0 0 0 0 0 0 0 0 0 0 0
0 0 0 0 0 0 0 0 0 0 0 0 0 0 0 0 0 0 0 0 0 0 0 0 0 0 0 0 0 0 0 0 0 0 0 0 0 0 0 0 0 0 0
0 0 0 0 0 0 0 0 0 0 0 0 0 0 0 0 0 0 0 0 0 0 0 0 0 0 0 0 0 0 0 0 0 0 0 0 0 0 0 0 0 0 0
0 0 0 0 0 0 0 0 0 0 0 0 0 0 0 0 0 0 0 0 0 0 0 0 0 0 0 0 0 0 0 0 0 0 0 0 0 0 0 0 0 0 0
0 0 0 0 0 0 0 0 0 0 0 0 0 0 0 0 0 0 0 0 0 0 0 0 0 0 0 0 0 0 0 0 0 0 0 0 0 0 0 0 0 0 0
0 0 0 0 0 0 0 0 0 0 0 0 0 0 0 0 0 0 0 0 0 0 0 0 0 0 0 0 0 0 0 0 0 0 0 0 0 0 0 0 0 0 0
0 0 0 0 0 0 0 0 0 0 0 0 0 0 0 0 0 0 0 0 0 0 0 0 0 0 0 0 0 0 0 0 0 0 0 0 0 0 0 0 0 0 0
0 0 0 0 0 0 0 0 0 0 0 0 0 0 0 0 0 0 0 0 0 0 0 0 0 0 0 0 0 0 0 0 0 0 0 0 0 0 0 0 0 0 0
0 0 0 0 0 0 0 0 0 0 0 0 0 0 0 0 0 0 0 0 0 0 0 0 0 0 0 0 0 0 0 0 0 0 0 0 0 0 0 0 0 0 0
0 0 0 0 0 0 0 0 0 0 0 0 0 0 0 0 0 0 0 0 0 0 0 0 0 0 0 0 0 0 0 0 0 0 0 0 0 0 0 0 0 0 0
0 0 0 0 0 0 0 0 0 0 0 0 0 0 0 0 0 0 0 0 0 0 0 0 0 0 0 0 0 0 0 0 0 0 0 0 0 0 0 0 0 0 0
0 0 0 0 0 0 0 0 0 0 0 0 0 0 0 0 0 0 0 0 0 0 0 0 0 0 0 0 0 0 0 1 0 0 0 0 0 0 0 0 0 0 0
0 0 0 0 0 0 0 0 0 0 0 0 0 0 0 0 0 0 0 0 0 0 0 0 0 0 0 0 0 0 0 0 0 0 0 0 0 0 0 0 0 0 0
0 0 0 0 0 0 0 0 0 0 0 0 0 0 0 0 0 0 0 0 0 0 0 0 0 0 0 0 0 0 0 0 0 0 0 0 0 0 0 0 0 0 0
0 0 0 0 0 0 0 0 0 0 0 0 0 0 0 0 0 0 0 0 0 0 0 0 0 0 0 0 0 0 0 0 0 0 0 0 0 0 0 0 0 0 0
0 0 0 0 0 0 0 0 0 0 0 0 0 0 0 0 0 0 0 0 0 0 0 0 0 0 0 0 0 1 0 0 0 0 0 0 0 0 0 0 0 0 0
0 0 0 0 0 0 0 0 0 0 0 0 0 0 0 0 0 0 0 0 0 0 0 0 0 0 0 0 0 0 0 0 0 0 0 0 0 0 0 0 0 0 0
0 0 0 0 0 0 0 0 0 0 0 0 0 0 0 0 0 0 0 0 0 0 0 0 0 0 0 0 0 0 0 0 0 0 0 0 0 0 0 0 0 0 0
Wind_Speed_500mb
14 13 4 8 5 6 5 2 1 2 3 2 2 3 4 5 9 11 13 11 9 6 3 6 8 7 3 4 3 1 3 6 9 12 12 12 9 12 13 10 9 11 12
18 12 10 8 10 5 8 6 5 4 5 5 5 4 6 9 9 11 13 12 9 5 2 4 3 5 4 2 3 2 1 6 11 12 12 12 11 14 7 5 4 5 9
13 11 7 11 12 7 7 9 9 8 8 8 7 8 8 13 9 12 13 11 9 7 6 8 6 10 6 6 7 7 6 7 11 12 14 10 13 6 1 2 1 1 3
14 12 9 15 15 11 9 9 9 9 10 11 11 11 12 13 15 16 16 14 13 11 10 12 14 14 11 10 11 11 12 12 12 11 14 13 8 6 6 4 3 3 3
9 9 8 9 12 12 13 11 11 11 12 14 16 16 17 17 17 17 17 16 16 16 16 16 19 19 18 14 13 14 16 17 15 11 11 12 9 9 7 5 4 3 2
3 4 7 10 11 9 10 12 14 15 15 16 19 20 21 20 19 19 20 20 20 20 21 22 24 22 21 18 17 20 21 21 19 16 15 19 15 11 9 8 7 6 4
6 1 6 11 12 12 14 14 13 15 18 20 22 24 24 25 25 26 25 24 24 24 25 25 24 25 27 22 20 24 27 27 23 20 18 16 17 15 12 12 11 9 7
5 6 9 12 15 17 17 17 17 19 21 23 24 26 28 29 29 31 29 28 28 28 28 28 31 31 32 30 25 27 31 33 31 27 24 20 19 18 15 15 14 13 11
14 14 13 16 20 20 21 24 26 27 29 28 27 28 29 31 33 34 35 35 34 33 33 34 34 36 35 36 33 30 34 37 38 36 31 26 23 21 19 18 18 17 15
19 19 18 20 22 24 27 32 33 30 33 35 34 33 33 35 36 37 38 40 39 39 37 38 38 40 41 39 41 37 36 42 43 42 39 33 29 27 25 22 22 20 18
19 19 20 23 25 28 31 33 36 39 40 43 42 41 40 40 39 37 39 40 44 43 43 43 43 44 46 46 44 46 43 46 48 47 45 41 36 33 30 27 24 23 22
18 20 22 24 28 31 34 36 37 39 42 44 45 46 47 49 48 46 45 43 43 45 48 49 50 51 53 55 53 51 54 55 52 52 49 47 43 39 36 34 29 27 27
22 22 26 32 38 41 42 44 44 43 43 42 43 46 49 51 52 53 53 49 52 49 48 50 54 58 62 62 62 60 61 61 61 56 55 51 51 47 43 39 37 31 31
25 28 33 38 44 45 48 51 49 47 45 44 44 45 49 54 56 57 57 60 58 55 53 55 56 56 61 66 65 63 63 65 65 65 60 57 56 56 50 45 43 38 34
28 32 37 45 52 53 56 54 48 47 47 48 47 46 48 49 51 54 59 62 67 67 65 61 63 63 64 64 68 67 64 65 65 67 66 60 59 60 58 53 46 46 40
31 37 45 51 56 55 46 42 41 42 43 46 49 49 47 49 52 55 57 57 61 66 71 76 75 71 73 73 75 71 73 71 69 70 71 70 61 63 62 61 56 52 51
36 44 52 57 50 42 40 39 39 40 40 39 39 42 44 47 49 53 57 61 63 63 67 69 74 81 84 82 81 79 75 75 75 72 73 75 69 67 67 67 66 61 59
42 49 52 47 43 42 40 38 36 34 33 31 31 33 34 37 42 47 51 55 59 65 69 71 70 70 76 77 80 79 77 72 72 72 72 74 75 70 73 73 72 69 65
45 49 42 39 39 40 40 36 31 26 23 24 26 29 32 35 39 45 49 54 54 59 64 67 73 70 71 71 73 73 76 73 71 69 67 69 73 74 72 76 73 76 69
43 39 37 36 36 36 33 28 22 18 18 22 27 30 33 37 41 45 46 50 53 57 60 63 68 68 67 72 72 75 74 72 70 71 70 66 69 68 66 58 79 90 88
34 32 30 28 27 28 29 27 25 26 25 26 29 33 35 38 39 42 46 49 53 60 61 61 61 64 64 63 63 68 67 67 71 71 67 65 68 69 71 70 63 83 82
28 26 23 22 23 25 27 26 28 30 29 30 31 34 39 41 42 43 45 50 53 60 56 53 51 56 59 58 52 55 46 53 61 62 67 68 69 58 57 59 61 64 79
20 20 19 19 21 23 25 24 22 26 25 30 32 38 38 39 42 43 45 49 47 48 53 48 43 50 52 50 49 40 21 21 33 46 55 67 70 64 62 54 48 50 59
16 18 19 20 16 18 20 24 26 28 32 34 35 34 32 37 39 40 37 38 39 41 45 47 42 40 49 50 42 47 44 53 29 29 41 51 60 68 63 57 50 48 48
15 15 17 17 14 15 15 19 21 24 25 25 26 30 29 32 31 30 34 37 42 44 28 32 32 33 36 44 45 38 35 34 52 56 42 30 29 39 40 43 48 46 45
16 17 16 14 11 12 13 15 20 21 22 24 27 30 32 35 37 39 38 39 37 38 42 40 27 27 23 14 11 15 19 22 32 31 31 69 76 69 54 44 39 35 36
Wind_Direction_500mb
30 15 13 337 321 311 263 333 287 267 276 284 284 285 305 318 332 341 341 337 339 344 71 83 52 56 98 189 188 14 56 83 126 144 151 163 168 148 118 101 71 89 69
30 26 351 334 305 312 273 284 291 288 284 280 286 291 298 300 305 327 333 330 324 323 197 168 299 12 22 330 246 210 176 133 134 136 146 153 148 144 117 78 69 106 122
24 17 359 314 319 310 285 274 287 285 278 272 274 282 299 316 326 322 324 319 304 295 239 222 226 262 334 294 273 254 239 185 158 148 139 165 159 157 6 353 342 223 193
33 21 356 326 327 315 297 285 280 280 282 280 278 277 288 289 299 310 313 312 292 276 259 246 241 252 278 304 265 256 231 201 185 175 162 174 200 258 289 304 305 294 259
29 23 347 333 328 326 311 294 288 286 285 286 285 286 290 292 294 297 299 304 294 279 268 268 261 267 253 289 263 248 227 216 211 207 210 214 237 262 265 279 275 262 243
99 346 344 340 330 327 306 290 288 289 287 286 291 290 289 291 289 293 295 293 296 284 274 276 267 266 254 277 265 243 233 231 235 238 237 237 246 259 256 253 248 254 258
46 214 294 293 309 325 336 322 303 291 285 284 284 285 285 285 285 291 293 290 286 287 278 270 263 262 255 265 263 246 239 239 240 243 247 245 250 256 258 258 254 253 252
340 271 260 256 273 289 302 302 309 311 303 295 286 284 284 284 284 287 289 287 287 285 279 274 266 263 259 259 259 252 245 244 248 250 252 253 257 252 259 254 257 261 256
317 297 272 266 268 269 272 276 282 286 292 294 292 284 280 280 283 283 284 284 282 283 280 275 272 264 263 261 259 258 251 247 250 252 253 256 258 256 255 252 251 254 258
311 304 294 284 279 278 276 271 272 273 277 281 283 284 283 280 280 280 284 284 283 280 277 274 271 271 266 264 259 256 257 251 250 252 253 254 255 257 257 253 249 252 256
311 311 305 304 302 297 290 284 280 279 277 277 279 279 279 279 279 281 283 284 282 280 277 272 269 267 266 265 262 254 254 253 252 250 252 253 253 254 256 253 247 249 252
314 316 327 325 319 315 309 301 293 286 281 279 278 277 276 274 273 277 280 284 284 282 278 276 273 269 264 261 258 256 253 252 252 251 250 251 251 252 254 253 249 249 250
327 326 322 324 326 323 319 313 305 299 293 286 280 277 275 273 272 271 271 273 277 279 282 282 275 271 268 265 262 259 258 259 256 251 249 249 251 250 250 251 251 249 249
318 319 321 321 321 318 318 316 310 303 298 295 291 287 283 279 276 274 272 267 269 272 274 278 276 278 270 265 265 263 260 261 258 254 250 247 248 249 249 250 247 249 250
309 310 315 319 319 318 314 311 307 303 299 295 293 289 285 284 281 276 273 270 267 272 271 271 270 270 272 269 266 263 262 261 260 258 255 249 247 246 247 247 247 252 252
308 312 315 318 319 318 318 317 315 313 309 301 295 295 294 290 286 284 283 280 273 270 272 273 273 269 266 270 267 266 263 262 262 261 257 251 245 243 244 244 246 248 252
313 318 320 322 324 324 323 321 320 319 318 313 306 302 301 299 297 289 286 283 281 279 277 272 271 271 271 268 267 265 266 263 263 263 261 257 252 243 242 242 243 247 250
314 318 322 323 322 324 323 325 323 320 318 316 308 302 299 296 295 295 296 293 290 287 282 281 279 275 272 273 268 266 264 268 265 263 262 258 257 255 242 242 245 245 247
313 317 319 319 321 322 325 326 325 323 317 310 306 307 306 305 302 302 303 304 303 294 288 284 278 279 278 274 271 268 266 270 267 263 262 261 259 259 257 240 240 241 242
316 319 321 322 328 331 332 335 339 340 334 325 318 314 316 310 306 304 305 305 303 297 293 289 282 277 278 278 275 271 270 270 269 264 264 262 260 260 259 254 253 244 237
312 312 316 321 329 337 343 349 358 356 347 340 329 323 318 313 311 310 309 309 307 301 294 290 286 279 277 273 278 272 272 267 266 264 262 265 262 261 257 254 258 250 241
311 318 322 327 337 341 348 357 1 1 2 2 350 341 334 328 325 320 316 318 322 319 305 296 288 282 273 273 267 273 276 278 271 266 262 261 255 253 252 257 255 249 245
312 320 320 327 334 349 355 354 1 11 7 4 0 350 350 341 332 326 323 327 331 330 318 311 299 278 272 272 263 255 262 241 274 270 260 254 254 252 248 252 254 252 249
312 322 325 325 338 349 7 19 19 23 18 12 10 9 7 358 3 2 357 348 336 333 332 318 294 288 274 267 265 264 262 260 263 278 265 251 249 248 247 248 248 247 254
306 312 316 333 337 357 10 16 16 11 17 16 7 13 15 16 10 6 4 358 352 347 339 348 324 296 284 264 263 261 257 264 257 245 274 272 241 239 239 243 247 249 253
297 295 307 319 333 350 359 6 8 12 9 1 0 4 6 6 6 6 5 353 339 341 346 346 334 356 299 313 265 250 248 260 280 285 313 266 252 237 249 244 234 234 225
Wind_Speed_850mb
14 13 4 8 5 6 5 2 1 2 3 2 2 3 4 5 9 11 13 11 9 6 3 6 8 7 3 4 3 1 3 6 9 12 12 12 9 12 13 10 9 11 12
18 12 10 8 10 5 8 6 5 4 5 5 5 4 6 9 9 11 13 12 9 5 2 4 3 5 4 2 3 2 1 6 11 12 12 12 11 14 7 5 4 5 9
13 11 7 11 12 7 7 9 9 8 8 8 7 8 8 13 9 12 13 11 9 7 6 8 6 10 6 6 7 7 6 7 11 12 14 10 13 6 1 2 1 1 3
14 12 9 15 15 11 9 9 9 9 10 11 11 11 12 13 15 16 16 14 13 11 10 12 14 14 11 10 11 11 12 12 12 11 14 13 8 6 6 4 3 3 3
9 9 8 9 12 12 13 11 11 11 12 14 16 16 17 17 17 17 17 16 16 16 16 16 19 19 18 14 13 14 16 17 15 11 11 12 9 9 7 5 4 3 2
3 4 7 10 11 9 10 12 14 15 15 16 19 20 21 20 19 19 20 20 20 20 21 22 24 22 21 18 17 20 21 21 19 16 15 19 15 11 9 8 7 6 4
6 1 6 11 12 12 14 14 13 15 18 20 22 24 24 25 25 26 25 24 24 24 25 25 24 25 27 22 20 24 27 27 23 20 18 16 17 15 12 12 11 9 7
5 6 9 12 15 17 17 17 17 19 21 23 24 26 28 29 29 31 29 28 28 28 28 28 31 31 32 30 25 27 31 33 31 27 24 20 19 18 15 15 14 13 11
14 14 13 16 20 20 21 24 26 27 29 28 27 28 29 31 33 34 35 35 34 33 33 34 34 36 35 36 33 30 34 37 38 36 31 26 23 21 19 18 18 17 15
19 19 18 20 22 24 27 32 33 30 33 35 34 33 33 35 36 37 38 40 39 39 37 38 38 40 41 39 41 37 36 42 43 42 39 33 29 27 25 22 22 20 18
19 19 20 23 25 28 31 33 36 39 40 43 42 41 40 40 39 37 39 40 44 43 43 43 43 44 46 46 44 46 43 46 48 47 45 41 36 33 30 27 24 23 22
18 20 22 24 28 31 34 36 37 39 42 44 45 46 47 49 48 46 45 43 43 45 48 49 50 51 53 55 53 51 54 55 52 52 49 47 43 39 36 34 29 27 27
22 22 26 32 38 41 42 44 44 43 43 42 43 46 49 51 52 53 53 49 52 49 48 50 54 58 62 62 62 60 61 61 61 56 55 51 51 47 43 39 37 31 31
25 28 33 38 44 45 48 51 49 47 45 44 44 45 49 54 56 57 57 60 58 55 53 55 56 56 61 66 65 63 63 65 65 65 60 57 56 56 50 45 43 38 34
28 32 37 45 52 53 56 54 48 47 47 48 47 46 48 49 51 54 59 62 67 67 65 61 63 63 64 64 68 67 64 65 65 67 66 60 59 60 58 53 46 46 40
31 37 45 51 56 55 46 42 41 42 43 46 49 49 47 49 52 55 57 57 61 66 71 76 75 71 73 73 75 71 73 71 69 70 71 70 61 63 62 61 56 52 51
36 44 52 57 50 42 40 39 39 40 40 39 39 42 44 47 49 53 57 61 63 63 67 69 74 81 84 82 81 79 75 75 75 72 73 75 69 67 67 67 66 61 59
42 49 52 47 43 42 40 38 36 34 33 31 31 33 34 37 42 47 51 55 59 65 69 71 70 70 76 77 80 79 77 72 72 72 72 74 75 70 73 73 72 69 65
45 49 42 39 39 40 40 36 31 26 23 24 26 29 32 35 39 45 49 54 54 59 64 67 73 70 71 71 73 73 76 73 71 69 67 69 73 74 72 76 73 76 69
43 39 37 36 36 36 33 28 22 18 18 22 27 30 33 37 41 45 46 50 53 57 60 63 68 68 67 72 72 75 74 72 70 71 70 66 69 68 66 58 79 90 88
34 32 30 28 27 28 29 27 25 26 25 26 29 33 35 38 39 42 46 49 53 60 61 61 61 64 64 63 63 68 67 67 71 71 67 65 68 69 71 70 63 83 82
28 26 23 22 23 25 27 26 28 30 29 30 31 34 39 41 42 43 45 50 53 60 56 53 51 56 59 58 52 55 46 53 61 62 67 68 69 58 57 59 61 64 79
20 20 19 19 21 23 25 24 22 26 25 30 32 38 38 39 42 43 45 49 47 48 53 48 43 50 52 50 49 40 21 21 33 46 55 67 70 64 62 54 48 50 59
16 18 19 20 16 18 20 24 26 28 32 34 35 34 32 37 39 40 37 38 39 41 45 47 42 40 49 50 42 47 44 53 29 29 41 51 60 68 63 57 50 48 48
15 15 17 17 14 15 15 19 21 24 25 25 26 30 29 32 31 30 34 37 42 44 28 32 32 33 36 44 45 38 35 34 52 56 42 30 29 39 40 43 48 46 45
16 17 16 14 11 12 13 15 20 21 22 24 27 30 32 35 37 39 38 39 37 38 42 40 27 27 23 14 11 15 19 22 32 31 31 69 76 69 54 44 39 35 36
Wind_Direction_850mb
30 15 13 337 321 311 263 333 287 267 276 284 284 285 305 318 332 341 341 337 339 344 71 83 52 56 98 189 188 14 56 83 126 144 151 163 168 148 118 101 71 89 69
30 26 351 334 305 312 273 284 291 288 284 280 286 291 298 300 305 327 333 330 324 323 197 168 299 12 22 330 246 210 176 133 134 136 146 153 148 144 117 78 69 106 122
24 17 359 314 319 310 285 274 287 285 278 272 274 282 299 316 326 322 324 319 304 295 239 222 226 262 334 294 273 254 239 185 158 148 139 165 159 157 6 353 342 223 193
33 21 356 326 327 315 297 285 280 280 282 280 278 277 288 289 299 310 313 312 292 276 259 246 241 252 278 304 265 256 231 201 185 175 162 174 200 258 289 304 305 294 259
29 23 347 333 328 326 311 294 288 286 285 286 285 286 290 292 294 297 299 304 294 279 268 268 261 267 253 289 263 248 227 216 211 207 210 214 237 262 265 279 275 262 243
99 346 344 340 330 327 306 290 288 289 287 286 291 290 289 291 289 293 295 293 296 284 274 276 267 266 254 277 265 243 233 231 235 238 237 237 246 259 256 253 248 254 258
46 214 294 293 309 325 336 322 303 291 285 284 284 285 285 285 285 291 293 290 286 287 278 270 263 262 255 265 263 246 239 239 240 243 247 245 250 256 258 258 254 253 252
340 271 260 256 273 289 302 302 309 311 303 295 286 284 284 284 284 287 289 287 287 285 279 274 266 263 259 259 259 252 245 244 248 250 252 253 257 252 259 254 257 261 256
317 297 272 266 268 269 272 276 282 286 292 294 292 284 280 280 283 283 284 284 282 283 280 275 272 264 263 261 259 258 251 247 250 252 253 256 258 256 255 252 251 254 258
311 304 294 284 279 278 276 271 272 273 277 281 283 284 283 280 280 280 284 284 283 280 277 274 271 271 266 264 259 256 257 251 250 252 253 254 255 257 257 253 249 252 256
311 311 305 304 302 297 290 284 280 279 277 277 279 279 279 279 279 281 283 284 282 280 277 272 269 267 266 265 262 254 254 253 252 250 252 253 253 254 256 253 247 249 252
314 316 327 325 319 315 309 301 293 286 281 279 278 277 276 274 273 277 280 284 284 282 278 276 273 269 264 261 258 256 253 252 252 251 250 251 251 252 254 253 249 249 250
327 326 322 324 326 323 319 313 305 299 293 286 280 277 275 273 272 271 271 273 277 279 282 282 275 271 268 265 262 259 258 259 256 251 249 249 251 250 250 251 251 249 249
318 319 321 321 321 318 318 316 310 303 298 295 291 287 283 279 276 274 272 267 269 272 274 278 276 278 270 265 265 263 260 261 258 254 250 247 248 249 249 250 247 249 250
309 310 315 319 319 318 314 311 307 303 299 295 293 289 285 284 281 276 273 270 267 272 271 271 270 270 272 269 266 263 262 261 260 258 255 249 247 246 247 247 247 252 252
308 312 315 318 319 318 318 317 315 313 309 301 295 295 294 290 286 284 283 280 273 270 272 273 273 269 266 270 267 266 263 262 262 261 257 251 245 243 244 244 246 248 252
313 318 320 322 324 324 323 321 320 319 318 313 306 302 301 299 297 289 286 283 281 279 277 272 271 271 271 268 267 265 266 263 263 263 261 257 252 243 242 242 243 247 250
314 318 322 323 322 324 323 325 323 320 318 316 308 302 299 296 295 295 296 293 290 287 282 281 279 275 272 273 268 266 264 268 265 263 262 258 257 255 242 242 245 245 247
313 317 319 319 321 322 325 326 325 323 317 310 306 307 306 305 302 302 303 304 303 294 288 284 278 279 278 274 271 268 266 270 267 263 262 261 259 259 257 240 240 241 242
316 319 321 322 328 331 332 335 339 340 334 325 318 314 316 310 306 304 305 305 303 297 293 289 282 277 278 278 275 271 270 270 269 264 264 262 260 260 259 254 253 244 237
312 312 316 321 329 337 343 349 358 356 347 340 329 323 318 313 311 310 309 309 307 301 294 290 286 279 277 273 278 272 272 267 266 264 262 265 262 261 257 254 258 250 241
311 318 322 327 337 341 348 357 1 1 2 2 350 341 334 328 325 320 316 318 322 319 305 296 288 282 273 273 267 273 276 278 271 266 262 261 255 253 252 257 255 249 245
312 320 320 327 334 349 355 354 1 11 7 4 0 350 350 341 332 326 323 327 331 330 318 311 299 278 272 272 263 255 262 241 274 270 260 254 254 252 248 252 254 252 249
312 322 325 325 338 349 7 19 19 23 18 12 10 9 7 358 3 2 357 348 336 333 332 318 294 288 274 267 265 264 262 260 263 278 265 251 249 248 247 248 248 247 254
306 312 316 333 337 357 10 16 16 11 17 16 7 13 15 16 10 6 4 358 352 347 339 348 324 296 284 264 263 261 257 264 257 245 274 272 241 239 239 243 247 249 253
297 295 307 319 333 350 359 6 8 12 9 1 0 4 6 6 6 6 5 353 339 341 346 346 334 356 299 313 265 250 248 260 280 285 313 266 252 237 249 244 234 234 225